OK1CMJ-5 Weather Reports


Display with metric or nautical units.
time (UTC)temp
F
wind
direction
speed
MPH
gust
MPH
rain 1hr
in
rain 24hr
in
rain mn
in
humidity
%
barometer
mb
20260509012946 46 1 0.0 2.0 0.00 0.00 0.00 80 1020.5
20260509012046 46 1 0.0 1.0 0.00 0.00 0.00 80 1020.6
20260509011147 46 1 0.0 1.0 0.00 0.00 0.00 80 1020.5
20260509010246 46 1 0.0 2.0 0.00 0.00 0.00 79 1020.5
20260509005346 47 1 1.0 2.0 0.00 0.00 0.00 79 1020.5
20260509004446 47 1 0.0 2.0 0.00 0.00 0.00 79 1020.6
20260509003546 47 1 0.0 2.0 0.00 0.00 0.00 79 1020.7
20260509002646 46 1 0.0 2.0 0.00 0.00 0.00 79 1020.7
20260509001746 46 1 0.0 2.0 0.00 0.00 0.00 79 1020.6
20260509000846 47 1 0.0 2.0 0.00 0.00 0.00 79 1020.7
20260508235946 47 1 0.0 2.0 0.00 0.00 0.00 79 1020.7
20260508234146 47 1 0.0 1.0 0.00 0.00 0.00 79 1020.6
20260508233246 47 81 0.0 3.0 0.00 0.00 0.00 79 1020.9
20260508232346 47 90 0.0 2.0 0.00 0.00 0.00 79 1020.8
20260508231446 47 90 1.0 2.0 0.00 0.00 0.00 78 1020.6
20260508230546 47 90 0.0 1.0 0.00 0.00 0.00 78 1020.7
20260508225647 47 90 0.0 2.0 0.00 0.00 0.00 77 1020.8
20260508224746 47 90 0.0 2.0 0.00 0.00 0.00 78 1020.9
20260508223846 47 124 0.0 3.0 0.00 0.00 0.00 78 1020.9
20260508222946 47 314 0.0 2.0 0.00 0.00 0.00 77 1020.9
20260508222046 47 314 1.0 2.0 0.00 0.00 0.00 77 1020.9
20260508221146 47 315 0.0 2.0 0.00 0.00 0.00 77 1020.9
20260508220246 48 315 0.0 2.0 0.00 0.00 0.00 77 1020.8
20260508212646 47 314 2.0 4.0 0.00 0.00 0.00 77 1020.7
20260508211746 47 325 0.0 2.0 0.00 0.00 0.00 76 1020.7
20260508210846 47 344 0.0 2.0 0.00 0.00 0.00 75 1020.7
20260508205946 47 316 0.0 2.0 0.00 0.00 0.00 74 1020.6
20260508205046 47 294 0.0 2.0 0.00 0.00 0.00 73 1020.7
20260508204146 48 292 1.0 4.0 0.00 0.00 0.00 73 1020.7
20260508203246 48 312 0.0 3.0 0.00 0.00 0.00 73 1020.7
20260508202346 48 292 1.0 4.0 0.00 0.00 0.00 73 1020.4
20260508201447 47 292 0.0 2.0 0.00 0.00 0.00 72 1020.5
20260508200546 47 295 0.0 3.0 0.00 0.00 0.00 72 1020.5
20260508195646 46 302 1.0 3.0 0.00 0.00 0.00 69 1020.4
20260508193846 46 292 0.0 1.0 0.00 0.00 0.00 61 1020.3
20260508192046 48 292 0.0 2.0 0.00 0.00 0.00 59 1019.8
20260508191146 49 0 0.0 0.0 0.00 0.00 0.00 57 1019.8
20260508190247 50 292 0.0 2.0 0.00 0.00 0.00 56 1019.9
20260508185346 50 292 0.0 2.0 0.00 0.00 0.00 55 1019.6
20260508184446 51 292 0.0 3.0 0.00 0.00 0.00 53 1019.5
20260508183546 51 311 1.0 3.0 0.00 0.00 0.00 52 1019.4
20260508182646 52 1 0.0 4.0 0.00 0.00 0.00 50 1019.3
20260508181746 52 327 0.0 3.0 0.00 0.00 0.00 49 1019.4
20260508180846 53 292 0.0 3.0 0.00 0.00 0.00 48 1019.3
20260508175047 53 344 2.0 4.0 0.00 0.00 0.00 48 1019.0
20260508174146 53 292 1.0 4.0 0.00 0.00 0.00 47 1018.8
20260508173246 53 292 2.0 4.0 0.00 0.00 0.00 46 1018.9
20260508172346 54 331 2.0 5.0 0.00 0.00 0.00 44 1018.6
20260508171446 54 24 2.0 4.0 0.00 0.00 0.00 41 1018.7
20260508170546 56 294 2.0 4.0 0.00 0.00 0.00 38 1018.7
20260508165646 56 330 1.0 6.0 0.00 0.00 0.00 38 1018.7
20260508164746 57 317 3.0 6.0 0.00 0.00 0.00 37 1018.7
20260508163846 57 356 2.0 6.0 0.00 0.00 0.00 38 1018.7
20260508162946 58 24 2.0 7.0 0.00 0.00 0.00 37 1018.7
20260508155346 58 8 2.0 7.0 0.00 0.00 0.00 32 1018.9
20260508154446 59 340 4.0 8.0 0.00 0.00 0.00 32 1018.7
20260508153546 57 307 2.0 5.0 0.00 0.00 0.00 36 1018.7
20260508150846 62 289 2.0 6.0 0.00 0.00 0.00 26 1018.8
20260508145946 62 81 2.0 7.0 0.00 0.00 0.00 30 1018.7
20260508145046 59 346 3.0 6.0 0.00 0.00 0.00 32 1018.7
20260508144147 59 312 2.0 5.0 0.00 0.00 0.00 32 1019.0
20260508142346 60 88 2.0 4.0 0.00 0.00 0.00 32 1019.0
20260508141446 60 347 2.0 4.0 0.00 0.00 0.00 29 1019.0
20260508132537 62 1 1.0 8.0 0.00 0.00 0.00 25 1019.2
20260508131637 62 1 1.0 6.0 0.00 0.00 0.00 28 1019.1
20260508130737 60 348 2.0 4.0 0.00 0.00 0.00 29 1019.2
20260508125837 60 345 2.0 6.0 0.00 0.00 0.00 30 1019.3
20260508124937 60 331 3.0 6.0 0.00 0.00 0.00 29 1019.3
20260508124037 60 103 1.0 2.0 0.00 0.00 0.00 32 1019.3
20260508123137 60 62 0.0 4.0 0.00 0.00 0.00 35 1019.5
20260508122237 59 341 2.0 5.0 0.00 0.00 0.00 34 1019.3
20260508121337 58 205 2.0 5.0 0.00 0.00 0.00 37 1019.3
20260508114637 57 78 2.0 4.0 0.00 0.00 0.00 37 1019.2
20260508113737 57 55 2.0 5.0 0.00 0.00 0.00 37 1019.2
20260508112837 57 337 2.0 6.0 0.00 0.00 0.00 37 1019.4
20260508111937 59 351 2.0 5.0 0.00 0.00 0.00 36 1019.4
20260508110137 59 338 2.0 4.0 0.00 0.00 0.00 42 1019.3
20260508105237 58 26 3.0 6.0 0.00 0.00 0.00 41 1019.4
20260508104337 57 1 2.0 6.0 0.00 0.00 0.00 44 1019.5
20260508103437 56 15 2.0 4.0 0.00 0.00 0.00 48 1019.4
20260508102537 56 89 1.0 4.0 0.00 0.00 0.00 51 1019.5
20260508101637 55 68 3.0 6.0 0.00 0.00 0.00 54 1019.6
20260508100737 54 1 3.0 4.0 0.00 0.00 0.00 53 1019.4
20260508095837 54 342 2.0 6.0 0.00 0.00 0.00 56 1019.5
20260508094037 53 2 2.0 6.0 0.00 0.00 0.00 56 1019.5
20260508093137 53 15 2.0 6.0 0.00 0.00 0.00 55 1019.4
20260508092237 54 6 3.0 5.0 0.00 0.00 0.00 53 1019.4
20260508091337 54 1 2.0 5.0 0.00 0.00 0.00 52 1019.5
20260508085537 57 339 2.0 4.0 0.00 0.00 0.00 46 1019.6
20260508084637 57 310 2.0 4.0 0.00 0.00 0.00 51 1019.5
20260508082837 55 127 1.0 3.0 0.00 0.00 0.00 64 1019.6
20260508081937 54 318 0.0 2.0 0.00 0.00 0.00 67 1019.4
20260508081037 53 1 0.0 2.0 0.00 0.00 0.00 70 1019.4
20260508080137 52 354 0.0 2.0 0.00 0.00 0.00 70 1019.4
20260508075237 52 312 0.0 2.0 0.00 0.00 0.00 70 1019.4
20260508074337 52 284 0.0 4.0 0.00 0.00 0.00 69 1019.4
20260508073437 53 217 1.0 2.0 0.00 0.00 0.00 69 1019.4
20260508072537 53 95 1.0 3.0 0.00 0.00 0.00 70 1019.2
20260508071637 54 118 1.0 3.0 0.00 0.00 0.00 72 1019.1
20260508064937 52 314 0.0 2.0 0.00 0.00 0.00 81 1018.9
20260508064037 51 314 0.0 4.0 0.00 0.00 0.00 81 1018.8
20260508063137 51 314 1.0 2.0 0.00 0.00 0.00 86 1018.9
20260508062237 51 314 0.0 2.0 0.00 0.00 0.00 87 1018.7
20260508061337 51 295 0.0 2.0 0.00 0.00 0.00 93 1018.6
20260508060437 50 225 0.0 2.0 0.00 0.00 0.00 99 1018.6
20260508055537 49 225 0.0 2.0 0.00 0.00 0.00 99 1018.6
20260508054637 49 183 1.0 3.0 0.00 0.00 0.00 99 1018.6
20260508053737 49 105 1.0 4.0 0.00 0.00 0.00 99 1018.5
20260508052837 48 324 2.0 4.0 0.00 0.00 0.00 99 1018.4
20260508051937 48 46 2.0 4.0 0.00 0.00 0.00 99 1018.5
20260508051037 48 0 0.0 0.0 0.00 0.00 0.00 99 1018.5
20260508045236 47 0 0.0 0.0 0.00 0.00 0.00 99 1018.2
20260508044337 47 0 0.0 0.0 0.00 0.00 0.00 99 1018.2
20260508043436 47 0 0.0 0.0 0.00 0.00 0.00 99 1018.1
20260508042536 46 1 0.0 1.0 0.00 0.00 0.00 99 1018.1
20260508041636 46 348 0.0 2.0 0.00 0.00 0.00 99 1018.1
20260508040736 46 0 0.0 0.0 0.00 0.00 0.00 99 1018.1
20260508035836 46 0 0.0 0.0 0.00 0.00 0.00 99 1018.1
20260508034936 46 0 0.0 0.0 0.00 0.00 0.00 99 1018.0
20260508034037 46 317 0.0 2.0 0.00 0.00 0.00 99 1017.8
20260508033136 46 314 0.0 2.0 0.00 0.00 0.00 99 1017.8
20260508032237 45 332 0.0 2.0 0.00 0.00 0.00 98 1017.8
20260508031336 45 0 0.0 0.0 0.00 0.00 0.00 97 1017.8
20260508030437 44 0 0.0 0.0 0.00 0.01 0.00 96 1017.7
20260508023736 44 1 0.0 1.0 0.00 0.01 0.00 95 1017.7
20260508022837 44 0 0.0 0.0 0.00 0.01 0.00 95 1017.6
20260508021936 44 0 0.0 0.0 0.00 0.01 0.00 94 1017.8
20260508021037 44 0 0.0 0.0 0.00 0.01 0.00 93 1017.8
20260508020137 44 0 0.0 0.0 0.00 0.01 0.00 93 1017.8
20260508015236 44 0 0.0 0.0 0.00 0.01 0.00 92 1017.7
20260508013436 44 0 0.0 0.0 0.00 0.01 0.00 91 1017.7